User: anonymous   Login
Location: Delta State University
(33.7460°N, 90.7320°W)
Time: 19:23:34
(UTC-06:00)
Language:

Iridium 13 - Orbit

View from above orbital plane
View from above orbital plane
View from above satellite
View from above satellite

Ground track
Ground track

The orbit data is extracted from the following two-line orbital elements,

1 24840U 97030E   16039.52387624  .00000053  00000-0  11762-4 0  9992
2 24840  86.3977 196.9563 0002056  89.1917 335.0499 14.34216672976042
Epoch (UTC): 08 February 2016 12:34:22
Eccentricity: 0.0002056
inclination: 86.3977°
perigee height: 776 km
apogee height: 779 km
right ascension of ascending node: 196.9563°
argument of perigee: 89.1917°
revolutions per day: 14.34216672
mean anomaly at epoch: 335.0499°
orbit number at epoch: 97604

The dashed part of the orbit path shows where the satellite is in the earth's shadow,  

DLR